Dutch Harbor, AK

1:45 AM AKDT on June 25, 2017 (GMT -0800)
Unalaska

Weather History for PADU - July, 2013

Change the Weather History Date:

Tuesday, July 16, 2013

  Actual Average Record
Temperature  
Mean Temperature 60 °F -  
Max Temperature 66 °F 55 °F 73 °F (1996)
Min Temperature 55 °F 45 °F 42 °F (1986)
Degree Days  
Heating Degree Days 6    
Growing Degree Days 10 (Base 50)    
Moisture  
Dew Point 53 °F    
Average Humidity 77    
Maximum Humidity 83    
Minimum Humidity 70    
Precipitation  
Precipitation 0.00 in - - ()
Sea Level Pressure  
Sea Level Pressure 30.19 in    
Wind  
Wind Speed 9 mph (SSE)    
Max Wind Speed 18 mph    
Max Gust Speed 26 mph    
Visibility 10 miles    
Events Rain    
Averages and records for this station are not official NWS values.
T = Trace of Precipitation, MM = Missing Value Source: NWS Daily Summary

Daily Weather History Graph

Daily Weather History Graph

Search for Another Location

Airport or City:

Trip Planner

Search our weather history database for the weather conditions in past years. The results will help you decide how hot, cold, wet, or windy it might be!

Date:

Astronomy

Jul. 16, 2013 Rise Set
Actual Time 6:56 AM AKDT 11:27 PM AKDT
Civil Twilight 6:06 AM AKDT 12:16 AM AKDT
Nautical Twilight 4:48 AM AKDT 1:33 AM AKDT
Astronomical Twilight 3:44 AM AKDT 2:39 AM AKDT
Moon 5:02 PM AKDT (7/16) 2:00 AM AKDT (7/16)
Length of Visible Light 18h 10m
Length of Day
16h 31m
First Quarter, 58% of the Moon is Illuminated
Jul 16
First Quarter
Jul 22
Full
Jul 29
Last Quarter
Aug 6
New
Aug 14
First Quarter

Hourly Weather History & Observations

Time (AKDT) Temp. Dew Point Humidity Pressure Visibility Wind Dir Wind Speed Gust Speed Precip Events Conditions
12:56 AM 55.9 °F 50.0 °F 80% 30.25 in 10.0 mi Calm Calm - N/A   Partly Cloudy
2:56 AM 57.9 °F 52.0 °F 81% 30.24 in 10.0 mi SSE 13.8 mph - N/A   Overcast
3:21 AM 57.2 °F 51.8 °F 82% 30.22 in 10.0 mi SSE 12.7 mph - N/A   Overcast
3:56 AM 57.0 °F 52.0 °F 83% 30.23 in 10.0 mi SSE 12.7 mph - N/A   Overcast
4:56 AM 57.9 °F 52.0 °F 81% 30.22 in 10.0 mi SSE 12.7 mph 19.6 mph N/A   Overcast
5:56 AM 57.9 °F 52.0 °F 81% 30.21 in 10.0 mi SSE 9.2 mph - N/A   Mostly Cloudy
6:56 AM 57.9 °F 52.0 °F 81% 30.20 in 10.0 mi SE 10.4 mph - N/A   Mostly Cloudy
7:56 AM 57.9 °F 52.0 °F 81% 30.19 in 10.0 mi SE 9.2 mph - N/A   Mostly Cloudy
8:56 AM 61.0 °F 53.1 °F 75% 30.19 in 10.0 mi Calm Calm - N/A   Mostly Cloudy
9:56 AM 59.0 °F 52.0 °F 78% 30.19 in 10.0 mi SSE 9.2 mph 18.4 mph N/A   Clear
10:56 AM 60.1 °F 52.0 °F 75% 30.18 in 10.0 mi SSE 16.1 mph 24.2 mph N/A   Mostly Cloudy
11:56 AM 62.1 °F 53.1 °F 72% 30.18 in 10.0 mi SSE 17.3 mph 25.3 mph N/A   Mostly Cloudy
12:56 PM 62.1 °F 53.1 °F 72% 30.17 in 10.0 mi SE 16.1 mph 26.5 mph N/A   Mostly Cloudy
1:56 PM 63.0 °F 53.1 °F 70% 30.18 in 10.0 mi South 18.4 mph 21.9 mph N/A   Scattered Clouds
2:56 PM 64.0 °F 54.0 °F 70% 30.18 in 10.0 mi SSE 12.7 mph 23.0 mph N/A   Mostly Cloudy
3:56 PM 64.0 °F 54.0 °F 70% 30.18 in 10.0 mi SSE 10.4 mph - N/A   Overcast
4:56 PM 62.1 °F 54.0 °F 75% 30.18 in 10.0 mi SSE 8.1 mph - N/A   Overcast
5:56 PM 60.1 °F 54.0 °F 80% 30.17 in 9.0 mi South 9.2 mph - N/A Rain Light Rain
6:28 PM 59.0 °F 53.6 °F 82% 30.15 in 9.0 mi SSE 8.1 mph - N/A Rain Light Rain
7:56 PM 61.0 °F 53.1 °F 75% 30.15 in 10.0 mi SSE 10.4 mph - N/A   Overcast
9:56 PM 59.0 °F 52.0 °F 78% 30.14 in 10.0 mi South 8.1 mph - N/A   Mostly Cloudy
10:56 PM 60.1 °F 52.0 °F 75% 30.14 in 10.0 mi SSE 10.4 mph - N/A   Overcast
11:56 PM 59.0 °F 52.0 °F 78% 30.15 in 10.0 mi SSW 5.8 mph - N/A   Overcast